Location: Sobotiste
(48.7170°N, 17.4000°E)
Time: 09:35:27
(UTC+02:00)

YUBILEINY - Pass Details

Date: 18 March 2026
Orbit: 1477 x 1509 km, 82.5° (Epoch: 17 April)

Event Time Altitude Azimuth Distance (km) Brightness Sun altitude
Rises 01:25:31 0° 351° (N) 4,622 ? -38.8°
Reaches altitude 10° 01:28:49 10° 1° (N) 3,635 ? -38.5°
Maximum altitude 01:36:39 35° 65° (ENE) 2,212 ? -37.8°
Drops below altitude 10° 01:44:24 10° 128° (SE) 3,610 ? -37.2°
Enters shadow 01:46:24 - 135° (SE) 4,211 ? -37.0°
